Radiation Dose at Monitoring Post of Fukushima Daini Nuclear Power Station
Date,Time,MP-1(microSv/h),MP-2(microSv/h),MP-3(microSv/h),MP-4(microSv/h),MP-5(microSv/h),MP-6(microSv/h),MP-7(microSv/h),Wind Direction,Wind Velocity(m/s),Rain
2020/10/29,00:00,0.175,0.156,0.253,0.242,0.243,0.137,0.083,southwest,4.9,No
2020/10/29,00:10,0.175,0.155,0.252,0.239,0.244,0.137,0.084,west-southwest,3.9,No
2020/10/29,00:20,0.175,0.155,0.252,0.240,0.243,0.136,0.082,west-southwest,2.9,No
2020/10/29,00:30,0.175,0.154,0.252,0.241,0.242,0.135,0.083,west-southwest,4.5,No
2020/10/29,00:40,0.174,0.154,0.252,0.239,0.244,0.136,0.083,southwest,5.4,No
2020/10/29,00:50,0.175,0.155,0.253,0.241,0.241,0.136,0.083,southwest,5.9,No
2020/10/29,01:00,0.174,0.156,0.253,0.240,0.243,0.136,0.083,west-southwest,4.5,No
2020/10/29,01:10,0.175,0.155,0.251,0.240,0.242,0.136,0.083,west,3.9,No
2020/10/29,01:20,0.174,0.155,0.253,0.240,0.243,0.136,0.083,west-southwest,6.1,No
2020/10/29,01:30,0.175,0.154,0.252,0.239,0.242,0.136,0.082,southwest,3.2,No
2020/10/29,01:40,0.175,0.155,0.250,0.240,0.244,0.137,0.083,south-southwest,2.4,No
2020/10/29,01:50,0.174,0.155,0.253,0.240,0.243,0.137,0.083,south-southwest,2.9,No
2020/10/29,02:00,0.175,0.155,0.251,0.239,0.240,0.136,0.083,south,2.0,No
2020/10/29,02:10,0.175,0.155,0.254,0.240,0.243,0.136,0.083,south-southwest,3.7,No
2020/10/29,02:20,0.174,0.156,0.253,0.239,0.242,0.137,0.083,southwest,2.0,No
2020/10/29,02:30,0.175,0.155,0.252,0.240,0.243,0.137,0.082,west-southwest,1.1,No
2020/10/29,02:40,0.176,0.156,0.253,0.241,0.242,0.136,0.082,west-northwest,2.6,No
2020/10/29,02:50,0.176,0.155,0.252,0.239,0.242,0.137,0.083,west,3.4,No
2020/10/29,03:00,0.175,0.155,0.253,0.239,0.242,0.136,0.082,west,3.3,No
2020/10/29,03:10,0.174,0.156,0.252,0.239,0.242,0.136,0.083,west,4.0,No
2020/10/29,03:20,0.176,0.156,0.251,0.239,0.244,0.137,0.083,west-northwest,2.7,No
2020/10/29,03:30,0.174,0.155,0.253,0.241,0.242,0.137,0.083,northwest,2.7,No
2020/10/29,03:40,0.176,0.154,0.252,0.239,0.244,0.136,0.083,northwest,3.5,No
2020/10/29,03:50,0.175,0.154,0.252,0.239,0.243,0.136,0.083,west-northwest,4.1,No
2020/10/29,04:00,0.175,0.155,0.253,0.239,0.243,0.137,0.083,west-northwest,4.2,No
2020/10/29,04:10,0.175,0.155,0.253,0.240,0.243,0.136,0.083,west,5.0,No
2020/10/29,04:20,0.175,0.155,0.253,0.241,0.243,0.136,0.082,west,7.7,No
2020/10/29,04:30,0.175,0.156,0.252,0.239,0.244,0.137,0.084,west-northwest,9.2,No
2020/10/29,04:40,0.174,0.155,0.252,0.240,0.242,0.136,0.083,west-northwest,11.1,No
2020/10/29,04:50,0.175,0.155,0.252,0.239,0.244,0.138,0.082,west-northwest,13.1,No
2020/10/29,05:00,0.175,0.154,0.252,0.239,0.242,0.136,0.084,west-northwest,14.9,No
2020/10/29,05:10,0.174,0.154,0.253,0.241,0.245,0.136,0.083,west,13.4,No
2020/10/29,05:20,0.174,0.155,0.252,0.240,0.243,0.136,0.083,west,14.4,No
2020/10/29,05:30,0.173,0.154,0.253,0.239,0.242,0.136,0.083,west,12.2,No
2020/10/29,05:40,0.176,0.155,0.253,0.240,0.243,0.136,0.083,west,9.5,No
2020/10/29,05:50,0.174,0.155,0.254,0.239,0.243,0.136,0.082,west-northwest,5.8,No
2020/10/29,06:00,0.175,0.155,0.253,0.241,0.243,0.136,0.082,north-northwest,3.9,No
2020/10/29,06:10,0.174,0.155,0.252,0.239,0.242,0.136,0.083,north-northwest,4.3,No
2020/10/29,06:20,0.176,0.155,0.254,0.241,0.244,0.135,0.082,northwest,4.6,No
2020/10/29,06:30,0.174,0.155,0.251,0.241,0.243,0.136,0.082,northwest,5.3,No
2020/10/29,06:40,0.176,0.155,0.253,0.240,0.244,0.137,0.083,west-northwest,4.4,No
2020/10/29,06:50,0.175,0.155,0.252,0.241,0.242,0.136,0.083,northwest,3.6,No
2020/10/29,07:00,0.175,0.156,0.251,0.239,0.244,0.136,0.083,northwest,3.8,No
2020/10/29,07:10,0.175,0.155,0.253,0.240,0.243,0.136,0.083,northwest,2.9,No
2020/10/29,07:20,0.175,0.155,0.252,0.241,0.243,0.136,0.083,northwest,3.0,No
2020/10/29,07:30,0.176,0.155,0.254,0.240,0.242,0.136,0.083,north-northwest,3.6,No
2020/10/29,07:40,0.175,0.155,0.253,0.240,0.244,0.137,0.083,north,3.5,No
2020/10/29,07:50,0.176,0.155,0.252,0.241,0.243,0.136,0.082,northwest,4.9,No
2020/10/29,08:00,0.175,0.155,0.254,0.239,0.242,0.137,0.083,northwest,6.0,No
2020/10/29,08:10,0.176,0.156,0.252,0.239,0.242,0.136,0.083,northwest,6.3,No
2020/10/29,08:20,0.175,0.154,0.254,0.240,0.243,0.137,0.083,northwest,7.0,No
2020/10/29,08:30,0.177,0.155,0.251,0.239,0.244,0.136,0.083,northwest,3.8,No
2020/10/29,08:40,0.175,0.155,0.253,0.240,0.244,0.136,0.083,west-northwest,7.7,No
2020/10/29,08:50,0.176,0.156,0.252,0.239,0.243,0.136,0.083,west-northwest,11.2,No
2020/10/29,09:00,0.174,0.154,0.252,0.240,0.242,0.136,0.083,northwest,8.4,No
2020/10/29,09:10,0.176,0.155,0.253,0.240,0.243,0.137,0.083,west-northwest,9.6,No
2020/10/29,09:20,0.174,0.154,0.252,0.237,0.243,0.136,0.083,west-northwest,10.3,No
2020/10/29,09:30,0.176,0.154,0.254,0.240,0.240,0.137,0.082,west,10.0,No
2020/10/29,09:40,0.174,0.157,0.252,0.239,0.243,0.137,0.083,west-northwest,14.8,No
2020/10/29,09:50,0.174,0.154,0.253,0.238,0.240,0.137,0.083,west,16.1,No
2020/10/29,10:00,0.176,0.155,0.253,0.240,0.243,0.137,0.083,west,15.8,No
2020/10/29,10:10,0.174,0.155,0.252,0.238,0.243,0.136,0.083,west-northwest,13.1,No
2020/10/29,10:20,0.175,0.156,0.254,0.242,0.242,0.137,0.083,west,13.6,No
2020/10/29,10:30,0.175,0.156,0.251,0.238,0.244,0.137,0.083,west,15.0,No
2020/10/29,10:40,0.174,0.154,0.255,0.239,0.243,0.136,0.083,west-northwest,5.8,No
2020/10/29,10:50,0.175,0.156,0.252,0.240,0.243,0.137,0.083,west,11.2,No
2020/10/29,11:00,0.175,0.155,0.252,0.238,0.243,0.137,0.082,northwest,2.8,No
2020/10/29,11:10,0.174,0.155,0.254,0.240,0.241,0.136,0.083,north-northwest,5.6,No
2020/10/29,11:20,0.176,0.156,0.251,0.239,0.243,0.136,0.082,west-northwest,5.8,No
2020/10/29,11:30,0.177,0.155,0.253,0.239,0.243,0.136,0.082,west-northwest,4.0,No
2020/10/29,11:40,0.175,0.156,0.253,0.241,0.243,0.136,0.083,northwest,8.1,No
2020/10/29,11:50,0.176,0.155,0.253,0.240,0.243,0.137,0.083,west-northwest,9.8,No
2020/10/29,12:00,0.175,0.156,0.253,0.240,0.244,0.136,0.082,west-northwest,11.2,No
2020/10/29,12:10,0.174,0.156,0.251,0.241,0.241,0.137,0.084,west-northwest,10.6,No
2020/10/29,12:20,0.177,0.155,0.255,0.239,0.242,0.137,0.082,west-northwest,8.4,No
2020/10/29,12:30,0.175,0.156,0.252,0.239,0.244,0.136,0.082,west-northwest,9.5,No
2020/10/29,12:40,0.174,0.156,0.253,0.240,0.242,0.136,0.083,west-northwest,11.2,No
2020/10/29,12:50,0.175,0.155,0.255,0.239,0.239,0.137,0.083,northwest,10.0,No
2020/10/29,13:00,0.175,0.157,0.252,0.240,0.244,0.137,0.082,west-northwest,8.1,No
2020/10/29,13:10,0.174,0.155,0.253,0.240,0.243,0.137,0.083,west-northwest,7.8,No
2020/10/29,13:20,0.176,0.156,0.255,0.239,0.241,0.138,0.083,west-northwest,12.0,No
2020/10/29,13:30,0.176,0.156,0.252,0.240,0.243,0.136,0.083,west-northwest,10.9,No
2020/10/29,13:40,0.175,0.155,0.255,0.241,0.244,0.137,0.083,west-northwest,11.1,No
2020/10/29,13:50,0.176,0.156,0.253,0.239,0.242,0.137,0.083,west-northwest,10.1,No
2020/10/29,14:00,0.176,0.156,0.255,0.241,0.244,0.136,0.083,west-northwest,10.7,No
2020/10/29,14:10,0.176,0.156,0.253,0.240,0.244,0.138,0.084,west-northwest,13.1,No
2020/10/29,14:20,0.177,0.156,0.255,0.241,0.244,0.138,0.082,west-northwest,10.9,No
2020/10/29,14:30,0.176,0.156,0.255,0.241,0.245,0.136,0.083,west-northwest,12.2,No
2020/10/29,14:40,0.176,0.155,0.255,0.242,0.244,0.136,0.082,west-northwest,13.7,No
2020/10/29,14:50,0.176,0.156,0.255,0.242,0.245,0.137,0.083,west-northwest,12.9,No
2020/10/29,15:00,0.177,0.156,0.254,0.243,0.243,0.136,0.083,west-northwest,14.9,No
2020/10/29,15:10,0.176,0.156,0.255,0.241,0.245,0.137,0.083,west-northwest,15.6,No
2020/10/29,15:20,0.177,0.156,0.254,0.242,0.244,0.138,0.082,northwest,12.5,No
2020/10/29,15:30,0.176,0.157,0.256,0.241,0.244,0.137,0.083,northwest,9.3,No
2020/10/29,15:40,0.176,0.157,0.254,0.242,0.243,0.138,0.083,northwest,11.4,No
2020/10/29,15:50,0.177,0.155,0.255,0.242,0.244,0.136,0.084,west-northwest,7.0,No
2020/10/29,16:00,0.177,0.156,0.254,0.241,0.245,0.137,0.083,west-northwest,5.1,No
2020/10/29,16:10,0.177,0.157,0.255,0.240,0.243,0.137,0.083,north-northwest,0.6,No
2020/10/29,16:20,0.177,0.157,0.256,0.241,0.246,0.138,0.082,north-northwest,3.5,No
2020/10/29,16:30,0.178,0.156,0.254,0.242,0.244,0.137,0.084,north-northwest,4.3,No
2020/10/29,16:40,0.175,0.157,0.256,0.242,0.245,0.138,0.083,north-northwest,4.3,No
2020/10/29,16:50,0.177,0.156,0.256,0.242,0.243,0.138,0.083,north,4.2,No
2020/10/29,17:00,0.176,0.156,0.255,0.242,0.245,0.138,0.083,north,4.7,No
2020/10/29,17:10,0.177,0.156,0.256,0.241,0.244,0.137,0.083,north-northwest,3.7,No
2020/10/29,17:20,0.176,0.156,0.255,0.242,0.244,0.137,0.083,north-northwest,3.8,No
2020/10/29,17:30,0.176,0.156,0.256,0.241,0.244,0.137,0.084,north-northwest,4.8,No
2020/10/29,17:40,0.177,0.156,0.255,0.241,0.242,0.137,0.083,northwest,5.1,No
2020/10/29,17:50,0.174,0.156,0.254,0.243,0.246,0.137,0.084,northwest,4.2,No
2020/10/29,18:00,0.177,0.157,0.256,0.241,0.244,0.138,0.084,north-northwest,6.2,No
2020/10/29,18:10,0.176,0.156,0.254,0.241,0.244,0.138,0.083,north-northwest,6.9,No
2020/10/29,18:20,0.176,0.156,0.255,0.241,0.244,0.138,0.083,north-northwest,7.3,No
2020/10/29,18:30,0.177,0.157,0.255,0.241,0.244,0.137,0.083,northwest,8.4,No
2020/10/29,18:40,0.177,0.157,0.255,0.243,0.245,0.138,0.083,northwest,9.5,No
2020/10/29,18:50,0.177,0.157,0.256,0.242,0.244,0.138,0.082,northwest,8.7,No
2020/10/29,19:00,0.177,0.156,0.254,0.241,0.243,0.138,0.084,north-northwest,6.7,No
2020/10/29,19:10,0.177,0.156,0.255,0.242,0.243,0.138,0.084,north-northwest,4.7,No
2020/10/29,19:20,0.176,0.156,0.255,0.242,0.243,0.138,0.084,north,3.5,No
2020/10/29,19:30,0.176,0.157,0.255,0.242,0.244,0.136,0.083,north,2.8,No
2020/10/29,19:40,0.177,0.156,0.254,0.243,0.244,0.138,0.083,north-northwest,1.9,No
2020/10/29,19:50,0.176,0.156,0.256,0.240,0.244,0.137,0.083,north-northeast,2.3,No
2020/10/29,20:00,0.176,0.157,0.255,0.242,0.244,0.137,0.083,north-northeast,1.8,No
2020/10/29,20:10,0.177,0.157,0.256,0.243,0.243,0.137,0.084,north-northeast,2.5,No
2020/10/29,20:20,0.177,0.157,0.256,0.241,0.245,0.137,0.084,north,3.0,No
2020/10/29,20:30,0.177,0.156,0.254,0.240,0.244,0.138,0.083,northwest,4.7,No
2020/10/29,20:40,0.177,0.156,0.255,0.243,0.244,0.137,0.084,northwest,6.8,No
2020/10/29,20:50,0.176,0.157,0.255,0.242,0.244,0.138,0.084,northwest,5.5,No
2020/10/29,21:00,0.177,0.155,0.254,0.242,0.244,0.138,0.084,northwest,7.2,No
2020/10/29,21:10,0.177,0.156,0.254,0.243,0.245,0.137,0.083,west-northwest,7.5,No
2020/10/29,21:20,0.178,0.157,0.255,0.242,0.244,0.137,0.083,west-northwest,8.8,No
2020/10/29,21:30,0.176,0.156,0.256,0.242,0.243,0.138,0.084,west-northwest,13.3,No
2020/10/29,21:40,0.176,0.157,0.255,0.242,0.246,0.137,0.083,west-northwest,12.5,No
2020/10/29,21:50,0.178,0.155,0.254,0.242,0.244,0.138,0.083,west-northwest,13.6,No
2020/10/29,22:00,0.175,0.157,0.254,0.242,0.245,0.137,0.083,west-northwest,13.4,No
2020/10/29,22:10,0.177,0.156,0.255,0.242,0.244,0.138,0.083,west-northwest,10.9,No
2020/10/29,22:20,0.176,0.156,0.256,0.242,0.244,0.136,0.084,west-northwest,11.5,No
2020/10/29,22:30,0.177,0.157,0.255,0.242,0.245,0.137,0.083,west-northwest,12.2,No
2020/10/29,22:40,0.177,0.156,0.256,0.241,0.244,0.138,0.084,west-northwest,12.0,No
2020/10/29,22:50,0.175,0.157,0.256,0.242,0.245,0.138,0.084,west,14.5,No
2020/10/29,23:00,0.177,0.156,0.256,0.243,0.246,0.137,0.083,west-northwest,12.5,No
2020/10/29,23:10,0.176,0.157,0.256,0.241,0.243,0.137,0.084,west-northwest,10.9,No
2020/10/29,23:20,0.177,0.155,0.256,0.242,0.246,0.138,0.083,west-northwest,11.7,No
2020/10/29,23:30,0.177,0.156,0.256,0.243,0.245,0.138,0.083,west-northwest,10.3,No
2020/10/29,23:40,0.176,0.157,0.257,0.242,0.245,0.137,0.083,west-northwest,11.2,No
2020/10/29,23:50,0.177,0.157,0.255,0.243,0.245,0.137,0.084,west-northwest,11.5,No
